Location: Flotzheim
(48.8375°N, 10.8136°E)
Time: 04:36:13
(UTC+00:00)

CREW DRAGON DEMO-1 DEB - Pass Details

Date: 23 January 2021
Orbit: 335 x 339 km, 51.6° (Epoch: 26 February)

Event Time Altitude Azimuth Distance (km) Brightness Sun altitude
Rises 16:59:57 0° 290° (WNW) 2,178 7.6 -9.8°
Reaches altitude 10° 17:02:00 10° 288° (WNW) 1,327 6.5 -10.1°
Maximum altitude 17:04:56 71° 205° (SSW) 375 2.9 -10.6°
Enters shadow 17:07:49 10° 120° (ESE) 1,298 5.1 -11.1°
